WetterOnline ( http://www.wetteronline.at )

Wetter aktuell Sonthofen/Oberallgäu

Aktuelles Wetter: Oberstdorf (812m)

6-stündlich | Neueste Meldungen
Ortszeit Temperatur Wetter
Mi, 20.02. 7:00 -3.5° C wolkig
Mi, 20.02. 1:00 0.9° C bedeckt
Di, 19.02. 19:00 3.5° C bedeckt
Di, 19.02. 13:00 7.2° C wolkenlos
Di, 19.02. 7:00 -2.8° C leicht bewölkt
Di, 19.02. 1:00 -5.2° C leicht bewölkt
Mo, 18.02. 19:00 1.2° C wolkenlos
Mo, 18.02. 13:00 5.7° C wolkenlos
Ortszeit Temperatur Wetter
Mi, 20.02. 11:30 4.4° C wolkig
Mi, 20.02. 11:20 4.4° C wolkig
Mi, 20.02. 11:10 4.2° C leicht bewölkt
Mi, 20.02. 11:00 2.3° C wolkenlos
Mi, 20.02. 10:50 2.3° C wolkenlos
Mi, 20.02. 10:40 3.6° C leicht bewölkt
Mi, 20.02. 10:30 2.0° C leicht bewölkt
Mi, 20.02. 10:00 -0.7° C wolkig
Mi, 20.02. 9:30 -0.8° C bewölkt
Mi, 20.02. 9:00 -1.7° C bedeckt
Mi, 20.02. 8:30 -2.4° C wolkig
Ortszeit Relative Feuchte Sichtweite
Mi, 20.02. 7:00 88% 40 km
Mi, 20.02. 1:00 83% 55 km
Di, 19.02. 19:00 69% 65 km
Di, 19.02. 13:00 49% 70 km
Di, 19.02. 7:00 79% 45 km
Di, 19.02. 1:00 91% 70 km
Mo, 18.02. 19:00 71% 70 km
Mo, 18.02. 13:00 49% 70 km
Ortszeit Relative Feuchte Sichtweite
Mi, 20.02. 11:30 59% 50 km
Mi, 20.02. 11:20 59% -
Mi, 20.02. 11:10 63% -
Mi, 20.02. 11:00 67% 35 km
Mi, 20.02. 10:50 67% -
Mi, 20.02. 10:40 62% -
Mi, 20.02. 10:30 67% 50 km
Mi, 20.02. 10:00 80% 30 km
Mi, 20.02. 9:30 81% 35 km
Mi, 20.02. 9:00 82% 30 km
Mi, 20.02. 8:30 89% 40 km
Ortszeit Niederschlagsmenge Niederschlagsart
Mi, 20.02. 7:00 0.0 l/m2 in 12 Std. -
Mi, 20.02. 1:00 0.0 l/m2 in 6 Std. -
Di, 19.02. 19:00 0.0 l/m2 in 12 Std. -
Di, 19.02. 13:00 0.0 l/m2 in 6 Std. -
Di, 19.02. 7:00 0.0 l/m2 in 12 Std. -
Di, 19.02. 1:00 0.0 l/m2 in 6 Std. -
Mo, 18.02. 19:00 0.0 l/m2 in 12 Std. -
Mo, 18.02. 13:00 0.0 l/m2 in 6 Std. -
Ortszeit Niederschlagsmenge Niederschlagsart
Mi, 20.02. 11:30 0.0 l/m2 in 1 Std. -
Mi, 20.02. 11:20 keine Meldung -
Mi, 20.02. 11:10 keine Meldung -
Mi, 20.02. 11:00 0.0 l/m2 in 1 Std. -
Mi, 20.02. 10:50 keine Meldung -
Mi, 20.02. 10:40 keine Meldung -
Mi, 20.02. 10:30 0.0 l/m2 in 1 Std. -
Mi, 20.02. 10:00 0.0 l/m2 in 1 Std. -
Mi, 20.02. 9:30 0.0 l/m2 in 1 Std. -
Mi, 20.02. 9:00 0.0 l/m2 in 1 Std. -
Mi, 20.02. 8:30 0.0 l/m2 in 1 Std. -
Ortszeit Stärke Spitze Richtung
km/h Bft. km/h Grad Sektor
Mi, 20.02. 7:00 6 1 13 160° S
Mi, 20.02. 1:00 4 1 18 180° S
Di, 19.02. 19:00 18 3 22 150° SO
Di, 19.02. 13:00 4 1 18 170° S
Di, 19.02. 7:00 7 2 22 160° S
Di, 19.02. 1:00 7 2 14 170° S
Mo, 18.02. 19:00 9 2 17 160° S
Mo, 18.02. 13:00 0 0 11 - -
Ortszeit Stärke Spitze Richtung
km/h Bft. km/h Grad Sektor
Mi, 20.02. 11:30 2 1 4 100° O
Mi, 20.02. 11:20 2 1 - 100° O
Mi, 20.02. 11:10 4 1 - 150° SO
Mi, 20.02. 11:00 4 1 4 150° SO
Mi, 20.02. 10:50 4 1 - 150° SO
Mi, 20.02. 10:40 2 1 - 170° S
Mi, 20.02. 10:30 4 1 4 40° NO
Mi, 20.02. 10:00 0 0 4 - -
Mi, 20.02. 9:30 2 1 6 170° S
Mi, 20.02. 9:00 4 1 11 140° SO
Mi, 20.02. 8:30 9 2 11 160° S
Ortszeit Untergrenze Bedeckung Gattung
total tief tief mittel hoch
Mi, 20.02. 7:00 2400 m 7/8 3/8 - - -
Mi, 20.02. 1:00 2100 m 8/8 8/8 - - -
Di, 19.02. 19:00 2400 m 8/8 8/8 - - -
Di, 19.02. 13:00 - 0/8 0/8 - - -
Di, 19.02. 7:00 9000 m 3/8 0/8 - - -
Di, 19.02. 1:00 9000 m 4/8 0/8 - - -
Mo, 18.02. 19:00 - 0/8 0/8 - - -
Mo, 18.02. 13:00 - 0/8 0/8 - - -
Ortszeit Bedeckungsgrad in Achtel und Wolkenuntergrenze
Mi, 20.02. 11:30 5(2100m)
Mi, 20.02. 11:20 5(2100m)
Mi, 20.02. 11:10 4(2100m) 4(9000m)
Mi, 20.02. 11:00 keine Wolken
Mi, 20.02. 10:50 keine Wolken
Mi, 20.02. 10:40 2(5100m)
Mi, 20.02. 10:30 1(2100m) 5(5100m)
Mi, 20.02. 10:00 6(2100m)
Mi, 20.02. 9:30 7(2100m)
Mi, 20.02. 9:00 8(2100m)
Mi, 20.02. 8:30 5(2400m) 7(9000m)
Ortszeit Stationsdruck (hPa) Tendenz (hPa in 3 Std.)
Mi, 20.02. 7:00 929 + 0,9
Mi, 20.02. 1:00 928 - 0,1
Di, 19.02. 19:00 927 + 0,8
Di, 19.02. 13:00 927 - 0,7
Di, 19.02. 7:00 928 + 0,4
Di, 19.02. 1:00 927 + 1,0
Mo, 18.02. 19:00 926 + 0,1
Mo, 18.02. 13:00 927 - 1,6
Ortszeit Stationsdruck (hPa) Tendenz (hPa in 3 Std.)
Mi, 20.02. 11:30 930 + 0,2
Mi, 20.02. 11:20 930 keine Meldung
Mi, 20.02. 11:10 930 keine Meldung
Mi, 20.02. 11:00 930 + 0,4
Mi, 20.02. 10:50 930 keine Meldung
Mi, 20.02. 10:40 930 keine Meldung
Mi, 20.02. 10:30 930 + 0,8
Mi, 20.02. 10:00 930 + 1,0
Mi, 20.02. 9:30 930 + 1,1
Mi, 20.02. 9:00 930 + 1,3
Mi, 20.02. 8:30 930 + 1,3
Ortszeit Schneehöhe (cm)
Mi, 20.02. 7:00 60
Mi, 20.02. 1:00 60
Di, 19.02. 19:00 60
Di, 19.02. 13:00 61
Di, 19.02. 7:00 62
Di, 19.02. 1:00 62
Mo, 18.02. 19:00 62
Mo, 18.02. 13:00 62
Ortszeit Schneehöhe (cm)
Mi, 20.02. 11:30 60
Mi, 20.02. 11:20 60
Mi, 20.02. 11:10 60
Mi, 20.02. 11:00 60
Mi, 20.02. 10:50 60
Mi, 20.02. 10:40 60
Mi, 20.02. 10:30 60
Mi, 20.02. 10:00 59
Mi, 20.02. 9:30 60
Mi, 20.02. 9:00 60
Mi, 20.02. 8:30 60
Link zu dieser Seite / Seite empfehlen

Das Wetter in ...